Simultaneous Nadir Overpasses (SNOs) Predictions

Prediction of SNOs between GOES-16 and AQUA Satellite Orbit:

Table of predicted SNOs for the next 14.0 days since TLE Epoch: 10/31/2020
Index Date Time (GOES-16) GOES-16 Lat,Lon AQUA Lat,Lon Distance(km) Time Diff (sec)
1 10/31/2020 18:35:16 -0.01, -75.17 0.13, -74.63 61.78 80
2 11/02/2020 18:23:04 -0.01, -75.17 0.72, -71.67 398.03 80
3 11/03/2020 06:44:20 0.01, -75.16 0.38, -76.83 189.62 80
4 11/05/2020 06:29:29 0.01, -75.17 -0.27, -73.88 146.88 80
5 11/05/2020 18:50:52 -0.01, -75.18 -0.81, -79.07 442.35 80
6 11/07/2020 06:17:18 0.01, -75.18 -0.92, -70.93 483.64 80
7 11/07/2020 18:38:40 -0.01, -75.19 -0.22, -76.11 105.41 80
8 11/09/2020 18:29:09 -0.00, -75.20 0.45, -73.16 232.07 80
9 11/10/2020 06:50:25 0.00, -75.20 0.65, -78.32 354.76 80
10 11/12/2020 06:38:13 0.00, -75.22 0.05, -75.36 16.60 80
